Weather History for Robstown, TX

Change the Weather History Date:

Monday, June 10, 2013

  Actual Average (KCRP) Record (KCRP)
Temperature  
Mean Temperature 85 °F 82 °F  
Max Temperature 94 °F 91 °F 99 °F (1948)
Min Temperature 76 °F 74 °F 61 °F (1955)
Degree Days  
Heating Degree Days 0 0  
Month to date heating degree days 0  
Since 1 June heating degree days 0  
Since 1 July heating degree days 898  
Cooling Degree Days 20 17  
Month to date cooling degree days 165  
Year to date cooling degree days 1006  
Since 1 June cooling degree days 165  
Growing Degree Days 35 (Base 50)    
Moisture  
Dew Point 74 °F    
Average Humidity 73    
Maximum Humidity 92    
Minimum Humidity 49    
Precipitation  
Precipitation 0.00 in 0.10 in 2.96 in (1922)
Month to date precipitation 1.05  
Year to date precipitation 11.32  
Snow  
Snow 0.00 in - - ()
Month to date snowfall  
Since 1 June snowfall  
Since 1 July snowfall  
Snow Depth -    
Sea Level Pressure  
Sea Level Pressure 29.93 in    
Wind  
Wind Speed 3 mph (ESE)    
Max Wind Speed 17 mph    
Max Gust Speed 26 mph    
Visibility 10 miles    
Events Rain , Thunderstorm    
T = Trace of Precipitation, MM = Missing Value Source: NWS Daily Summary

Daily Weather History Graph

Daily Weather History Graph

Search for Another Location

Airport:

Trip Planner

Search our weather history database for the weather conditions in past years. The results will help you decide how hot, cold, wet, or windy it might be!

Date:

Astronomy

Jun. 10, 2013 Rise Set
Actual Time 6:34 AM CDT 8:26 PM CDT
Civil Twilight 6:07 AM CDT 8:53 PM CDT
Nautical Twilight 5:35 AM CDT 9:25 PM CDT
Astronomical Twilight 5:01 AM CDT 9:59 PM CDT
Moon 8:17 AM CDT (6/10) 10:02 PM CDT (6/10)
Length of Visible Light 14h 45m
Length of Day
13h 52m
Waxing Crescent, 4% of the Moon is Illuminated
Jun 10
Waxing Crescent
Jun 16
First Quarter
Jun 23
Full
Jun 29
Last Quarter
Jul 8
New

Hourly Weather History & Observations

Time (CDT) Temp. Heat Index Dew Point Humidity Pressure Visibility Wind Dir Wind Speed Gust Speed Precip Events Conditions
12:15 AM 81.5 °F 88.0 °F 75.6 °F 82% 29.94 in 10.0 mi Calm Calm - N/A Rain Heavy Rain
12:35 AM 81.0 °F 87.1 °F 75.6 °F 84% 29.94 in 10.0 mi Calm Calm - N/A Rain Heavy Rain
12:55 AM 80.6 °F 86.4 °F 75.6 °F 85% 29.94 in 10.0 mi Calm Calm - N/A Rain Rain
1:15 AM 80.2 °F 85.5 °F 75.4 °F 85% 29.94 in 10.0 mi Calm Calm - N/A Rain Rain
1:35 AM 79.9 °F - 75.4 °F 86% 29.93 in 10.0 mi Calm Calm - N/A   Clear
1:55 AM 79.7 °F - 75.6 °F 87% 29.93 in 10.0 mi Calm Calm - N/A   Clear
2:15 AM 79.3 °F - 75.6 °F 88% 29.93 in 10.0 mi Calm Calm - N/A   Clear
2:35 AM 78.8 °F - 75.2 °F 89% 29.93 in 10.0 mi Calm Calm - N/A   Clear
2:55 AM 78.4 °F - 75.2 °F 90% 29.92 in 10.0 mi Calm Calm - N/A   Clear
3:15 AM 78.4 °F - 75.2 °F 90% 29.91 in 10.0 mi Calm Calm - N/A   Clear
3:35 AM 78.3 °F - 74.8 °F 89% 29.92 in 10.0 mi Calm Calm - N/A   Clear
3:55 AM 77.9 °F - 74.5 °F 89% 29.92 in 10.0 mi Calm Calm - N/A   Clear
4:15 AM 77.4 °F - 74.3 °F 90% 29.92 in 10.0 mi Calm Calm - N/A   Clear
4:35 AM 77.2 °F - 74.1 °F 90% 29.92 in 10.0 mi Calm Calm - N/A   Clear
4:55 AM 77.0 °F - 73.9 °F 90% 29.92 in 10.0 mi Calm Calm - N/A   Clear
5:15 AM 77.0 °F - 74.3 °F 91% 29.92 in 10.0 mi Calm Calm - N/A   Clear
5:35 AM 76.5 °F - 73.8 °F 91% 29.93 in 10.0 mi Calm Calm - N/A   Clear
5:55 AM 77.2 °F - 74.5 °F 91% 29.93 in 10.0 mi Calm Calm - N/A   Clear
6:15 AM 76.6 °F - 73.9 °F 91% 29.93 in 10.0 mi Calm Calm - N/A   Clear
6:35 AM 76.1 °F - 73.4 °F 91% 29.94 in 10.0 mi Calm Calm - N/A   Clear
6:55 AM 77.4 °F - 74.8 °F 92% 29.94 in 10.0 mi Calm Calm - N/A   Clear
7:15 AM 77.2 °F - 74.7 °F 92% 29.94 in 10.0 mi Calm Calm - N/A   Clear
7:35 AM 77.9 °F - 75.4 °F 92% 29.94 in 10.0 mi Calm Calm - N/A   Clear
7:55 AM 79.3 °F - 75.9 °F 89% 29.94 in 10.0 mi Calm Calm - N/A   Clear
8:15 AM 81.5 °F 88.5 °F 76.3 °F 84% 29.94 in 10.0 mi Calm Calm - N/A   Clear
8:35 AM 82.8 °F 91.0 °F 76.5 °F 81% 29.94 in 10.0 mi NE 3.5 mph - N/A   Clear
8:55 AM 84.0 °F 93.3 °F 76.5 °F 78% 29.95 in 10.0 mi NE 5.8 mph - N/A   Clear
9:15 AM 85.5 °F 95.0 °F 76.1 °F 73% 29.95 in 10.0 mi ENE 4.6 mph - N/A Thunderstorm Clear
9:35 AM 86.7 °F 96.4 °F 75.4 °F 69% 29.95 in 10.0 mi East 6.9 mph - N/A   Scattered Clouds
9:55 AM 87.4 °F 97.7 °F 75.6 °F 68% 29.95 in 10.0 mi East 3.5 mph - N/A   Scattered Clouds
10:15 AM 87.8 °F 97.6 °F 75.2 °F 66% 29.95 in 10.0 mi NE 4.6 mph - N/A   Scattered Clouds
10:35 AM 88.5 °F 97.8 °F 74.7 °F 63% 29.95 in 10.0 mi NE 8.1 mph - N/A   Scattered Clouds
10:55 AM 88.9 °F 97.1 °F 73.6 °F 60% 29.96 in 10.0 mi ENE 6.9 mph - N/A   Mostly Cloudy
11:15 AM 88.9 °F 96.6 °F 73.0 °F 59% 29.96 in 10.0 mi NE 6.9 mph - N/A   Mostly Cloudy
11:35 AM 89.4 °F 97.3 °F 72.9 °F 58% 29.96 in 10.0 mi East 10.4 mph - N/A   Overcast
11:55 AM 90.1 °F 97.8 °F 72.5 °F 56% 29.96 in 10.0 mi NE 9.2 mph - N/A   Mostly Cloudy
12:15 PM 91.8 °F 99.1 °F 71.6 °F 52% 29.95 in 10.0 mi East 9.2 mph - N/A Thunderstorm Thunderstorm
12:35 PM 88.2 °F 95.0 °F 72.3 °F 59% 29.95 in 10.0 mi South 11.5 mph 17.3 mph N/A   Mostly Cloudy
12:55 PM 86.2 °F 93.0 °F 72.7 °F 64% 29.95 in 10.0 mi SSE 9.2 mph - N/A   Scattered Clouds
1:15 PM 88.0 °F 95.6 °F 73.0 °F 61% 29.95 in 10.0 mi SSE 10.4 mph - N/A   Clear
1:35 PM 88.3 °F 96.4 °F 73.6 °F 61% 29.95 in 10.0 mi SSE 4.6 mph - N/A   Clear
1:55 PM 88.5 °F 96.8 °F 73.6 °F 61% 29.94 in 10.0 mi Calm Calm - N/A   Clear
2:15 PM 89.1 °F 98.0 °F 73.9 °F 61% 29.94 in 10.0 mi ESE 3.5 mph - N/A   Clear
2:35 PM 91.4 °F 100.7 °F 73.8 °F 56% 29.94 in 10.0 mi East 4.6 mph - N/A   Clear
2:55 PM 92.7 °F 101.7 °F 73.2 °F 53% 29.93 in 10.0 mi ESE 11.5 mph 16.1 mph N/A   Scattered Clouds
3:15 PM 92.1 °F 101.7 °F 73.8 °F 55% 29.93 in 10.0 mi ESE 15.0 mph - N/A   Mostly Cloudy
3:35 PM 94.3 °F 102.9 °F 72.3 °F 49% 29.92 in 10.0 mi East 13.8 mph 18.4 mph N/A   Scattered Clouds
3:55 PM 93.4 °F 101.5 °F 72.0 °F 50% 29.91 in 10.0 mi East 12.7 mph 21.9 mph N/A   Scattered Clouds
4:15 PM 92.1 °F 99.4 °F 71.8 °F 51% 29.91 in 10.0 mi ESE 16.1 mph 23.0 mph N/A   Scattered Clouds
4:35 PM 92.3 °F 98.6 °F 70.9 °F 49% 29.91 in 10.0 mi ESE 12.7 mph - N/A   Scattered Clouds
4:55 PM 92.8 °F 100.9 °F 72.5 °F 51% 29.91 in 10.0 mi ESE 17.3 mph 26.5 mph N/A   Scattered Clouds
5:15 PM 91.9 °F 99.5 °F 71.8 °F 52% 29.91 in 10.0 mi ESE 13.8 mph 18.4 mph N/A   Scattered Clouds
5:35 PM 91.6 °F 99.3 °F 72.5 °F 53% 29.92 in 10.0 mi SE 16.1 mph 19.6 mph N/A   Scattered Clouds
5:55 PM 89.4 °F 97.8 °F 73.4 °F 59% 29.92 in 10.0 mi SE 16.1 mph 21.9 mph N/A   Scattered Clouds
6:15 PM 88.7 °F 96.7 °F 73.2 °F 60% 29.92 in 10.0 mi ESE 15.0 mph - N/A   Scattered Clouds
6:35 PM 87.8 °F 95.6 °F 73.4 °F 62% 29.91 in 10.0 mi ESE 15.0 mph - N/A   Scattered Clouds
6:55 PM 87.1 °F 94.5 °F 73.2 °F 63% 29.92 in 10.0 mi SE 16.1 mph - N/A   Scattered Clouds
7:15 PM 86.2 °F 93.8 °F 73.8 °F 66% 29.92 in 10.0 mi SE 15.0 mph 18.4 mph N/A   Scattered Clouds
7:35 PM 85.5 °F 93.0 °F 73.8 °F 68% 29.92 in 10.0 mi SE 10.4 mph - N/A   Scattered Clouds
7:55 PM 85.1 °F 92.9 °F 74.3 °F 70% 29.92 in 10.0 mi SE 15.0 mph - N/A   Clear
8:15 PM 84.4 °F 92.0 °F 74.5 °F 72% 29.92 in 10.0 mi ESE 8.1 mph - N/A   Scattered Clouds
8:35 PM 83.7 °F 90.4 °F 73.6 °F 72% 29.93 in 10.0 mi ESE 10.4 mph - N/A   Scattered Clouds
8:55 PM 83.3 °F 89.6 °F 73.6 °F 72% 29.93 in 10.0 mi ESE 8.1 mph - N/A   Clear
9:15 PM 82.8 °F 88.7 °F 73.4 °F 73% 29.93 in 10.0 mi Calm Calm - N/A   Clear
9:35 PM 82.2 °F 88.0 °F 73.4 °F 75% 29.93 in 10.0 mi Calm Calm - N/A   Clear
9:55 PM 81.3 °F 86.5 °F 73.4 °F 77% 29.93 in 10.0 mi Calm Calm - N/A   Clear
10:15 PM 80.6 °F 85.4 °F 73.4 °F 79% 29.94 in 10.0 mi Calm Calm - N/A   Clear
10:35 PM 80.1 °F 84.4 °F 73.4 °F 80% 29.95 in 10.0 mi Calm Calm - N/A   Clear
10:55 PM 79.7 °F - 73.0 °F 80% 29.95 in 10.0 mi Calm Calm - N/A   Clear
11:15 PM 79.0 °F - 73.2 °F 82% 29.96 in 10.0 mi Calm Calm - N/A   Clear
11:35 PM 78.3 °F - 73.0 °F 84% 29.96 in 10.0 mi Calm Calm - N/A   Scattered Clouds
11:55 PM 78.1 °F - 73.0 °F 84% 29.97 in 10.0 mi Calm Calm - N/A   Mostly Cloudy